Showing default

PAZ, 43215

Orbit data source: Space-Track

PAZ, 43215 is a payload satellite owned by Hisdesat (ES) in SSO that was launched on Thu, 22 Feb 2018 UTC via an FALCON 9 launch vehicle from the Air Force Western Test Range (AFWTR). Payload-class satellites include a variety of spacecraft equipped with specific instruments for various scientific and technological missions. These include communications satellites like Starlink; space stations such as the ISS; scientific satellites like the Hubble; Earth observation satellites from companies like Planet Labs, Umbra, and HawkEye 360; GPS; miniature CubeSats for education and research; and military/defense satellites.

Loading next visibility...
Identifier
43215, 2018-020A
Orbit
SSO
Country
Flag of ESES / SPN
Related business
Manufacturer
Airbus Barajas
Mission
Operational Defense Radar Imaging
Bus & Motor
SEOSAR, Unknown motor
Mass
1,400 kg wet, ~1,200 kg dry
Launch date (UTC)
2018-02-22 (8 years ago)
Launch vehicle
FALCON 9
Launch site
Air Force Western Test Range (AFWTR)
Object type
Payload
Rocket body
Debris
Shape & HBR
Hex Cyl, 5.0 m
Radar Cross Section
10.871 m², Large (>1 m²)

Expand to show TLE details & history
Last TLE update: 5 hours ago

TLE from 5 hours ago
0 PAZ
1 43215U 18020A   25261.33458970  .00001456  00000-0  72541-4 0  9990
2 43215  97.4472 267.6362 0001759  86.9037 273.2398 15.19138977419736
Epoch: 2025-09-18T08:01Z
TLE epoch observation values (Epoch: 2025-09-18T08:01:48.55Z)
Latitude
-0.00008°
Longitude
149.68625°
Altitude
511.461 km
Speed
7.608 km/s
True Right ascension
17h 50m 32s
True Declination
0° 00' 00"
Sunlit
Object was in daylight at epoch
Visualization orbit readout
Latitude
Unknown
Longitude
Unknown
Altitude
Unknown
Speed
Unknown
Apparent Right ascension
Unknown
Apparent Declination
Unknown
Sunlit
N/A
Visualization observer readout
Local Sidereal Time
05:28:43
Azimuth
Unknown
Elevation
Unknown
Doppler factor
Unknown
Orbital elements
Apogee altitude
506.621 km
Perigee altitude
504.199 km
Semi-major axis
6,883.547 km
Eccentricity
0.00018
Inclination
97.4472°
RAAN
267.6362°
Arg. of periapsis
86.9037°
True anomaly
273.21968°
Mean anomaly
273.2398°
Eccentric anomaly
273.22974°
Mean motion
3.80036 °/min
Orbital period
94.73 mins
BSTAR
0.000072541
Loading maneuver chart data...
Computing Atmospheric mass density...
Loading historical data...
Loading historical data...
Loading historical data...
Loading historical data...
Loading historical data...
Loading historical data...
Loading historical data...
Other satellites on launch #20 in the year 2018 (2018-02-22 UTC)

Documentation

Showing up to 5 results
|